[[{"header":{"parameterUnit":"m.s-1","parameterCategory":1,"la1":30.2991,"la2":30.254,"lo1":-89.0895,"lo2":-89.0444,"dy":0.0017,"dx":0.0017,"nx":28,"ny":28,"refTime":"2024-07-11T09:00:00:Z","depth":0,"parameterNumber":2,"parameterNumberName":"U-component_of_WINDS"},"data":[0,0,0,0,0,0,0,0,0,0,0,0,0,0,0,0,0,0,0,0,0,0,0,0,0,0,0,0,0,0,0,0,0,0,0,0,0,0,0,0,0,0,0,0,0,0,0,0,0,0,0,0,0,0,0,0,0,0,-0.3578,-0.3577,0,-0.3465,-0.3464,-0.3463,-0.3462,-0.3464,-0.3465,-0.3467,-0.3345,-0.334,-0.3336,0,0,0,0,0,0,0,0,0,0,0,0,0,-0.379,-0.3786,-0.3579,-0.3577,-0.3576,-0.3465,-0.3464,-0.3462,-0.3462,-0.3464,-0.3466,-0.3468,-0.3346,-0.3341,-0.3335,0,0,0,0,0,0,0,0,0,0,0,0,0,-0.369,-0.3785,-0.3579,-0.3563,-0.356,-0.3466,-0.3464,-0.3462,-0.3462,-0.3464,-0.3466,-0.3468,-0.3348,-0.3341,-0.3335,-0.3247,0,0,-0.3313,-0.331,0,0,0,0,0,0,0,0,-0.3695,-0.3682,-0.3566,-0.3564,-0.3561,-0.348,-0.3494,-0.339,-0.3461,-0.3499,-0.3467,-0.3469,-0.3388,-0.3378,-0.3351,-0.3241,-0.3236,-0.3313,-0.3309,-0.3306,-0.3304,0,0,0,0,0,0,0,-0.3702,-0.3687,-0.3534,-0.3565,-0.3561,-0.3559,-0.3548,-0.3474,-0.3432,-0.3496,-0.3496,-0.3482,-0.3387,-0.3358,-0.3348,-0.3234,-0.3313,-0.3307,-0.3302,-0.33,-0.3048,-0.3045,0,0,0,0,0,0,-0.3713,-0.3692,-0.3537,-0.353,-0.3635,-0.3554,-0.3541,-0.3504,-0.3433,-0.3424,-0.3481,-0.3483,-0.3369,-0.3357,-0.3344,-0.3238,-0.3306,-0.3299,-0.3295,-0.305,-0.3047,-0.3044,0,0,0,0,0,0,-0.3718,-0.3699,-0.3542,-0.3611,-0.3591,-0.3548,-0.3506,-0.35,-0.3472,-0.3422,-0.3413,-0.346,-0.337,-0.3354,-0.3272,-0.3234,-0.3296,-0.329,-0.3053,-0.3049,-0.3046,-0.3024,0,0,0,0,0,0,-0.3724,-0.3701,-0.3668,-0.3611,-0.3587,-0.3473,-0.3504,-0.3496,-0.3461,-0.3462,-0.34,-0.3391,-0.3371,-0.3282,-0.3265,-0.3225,-0.3284,-0.3056,-0.3051,-0.3047,-0.3028,-0.302,-0.3013,0,0,0,0,0,-0.3731,-0.3665,-0.3667,-0.3648,-0.3546,-0.3471,-0.3457,-0.3436,-0.3458,-0.3424,-0.3392,-0.3393,-0.3241,-0.3274,-0.3254,-0.3212,-0.3059,-0.3053,-0.3047,-0.3031,-0.3022,-0.3014,0,0,0,0,0,0,-0.3717,-0.3657,-0.3658,-0.3572,-0.3527,-0.3471,-0.3427,-0.3426,-0.3372,-0.3376,-0.3351,-0.3337,-0.3255,-0.3225,-0.3263,-0.3124,-0.3152,-0.3142,-0.3147,-0.3137,-0.313,-0.3139,-0.3278,0,0,0,0,0,-0.3705,-0.365,-0.36,-0.3528,-0.3506,-0.3471,-0.3437,-0.3425,-0.3376,-0.3357,-0.3318,-0.3269,-0.321,-0.3172,-0.3115,-0.3024,-0.301,-0.2985,-0.2978,-0.2972,-0.2964,-0.2914,-0.2902,-0.3026,-0.3026,-0.3026,0,0,-0.3677,-0.3638,-0.3604,-0.3525,-0.3488,-0.3431,-0.3454,-0.3392,-0.335,-0.3346,-0.3268,-0.3238,-0.3181,-0.3095,-0.3055,-0.3067,-0.2927,-0.2965,-0.296,-0.2955,-0.2907,-0.2895,-0.2885,-0.3022,-0.3023,-0.3023,0,0,-0.3598,-0.3563,-0.35,-0.3463,-0.3409,-0.3386,-0.3371,-0.3315,-0.3296,-0.3217,-0.3214,-0.3161,-0.306,-0.3021,-0.2987,-0.2894,-0.2894,-0.2876,-0.2837,-0.2789,-0.278,-0.2771,-0.2738,-0.2727,-0.2868,-0.2868,-0.2868,0,-0.357,-0.3486,-0.3467,-0.3406,-0.3371,-0.3368,-0.3303,-0.3268,-0.3197,-0.3172,-0.3188,-0.3062,-0.3023,-0.2928,-0.2906,-0.2879,-0.286,-0.2883,-0.2783,-0.2774,-0.2765,-0.2734,-0.2722,-0.2866,-0.2866,-0.2867,-0.2867,0,-0.3454,-0.3396,-0.3351,-0.3285,-0.3245,-0.3182,-0.3153,-0.3114,-0.3106,-0.3081,-0.3,-0.2955,-0.2889,-0.2865,-0.2855,-0.2768,-0.2778,-0.2788,-0.2816,-0.2752,-0.2722,-0.271,-0.2864,-0.2864,-0.2865,-0.2865,0,0,-0.3362,-0.3288,-0.3272,-0.3243,-0.3183,-0.3136,-0.3073,-0.3011,-0.2978,-0.2929,-0.2875,-0.2791,-0.28,-0.2762,-0.2748,-0.2706,-0.2636,-0.2721,-0.272,-0.2708,-0.2538,-0.2531,-0.2518,-0.2636,-0.2633,-0.2632,-0.2543,0,-0.3277,-0.3168,-0.3149,-0.3053,-0.2998,-0.2995,-0.294,-0.2897,-0.2872,-0.2821,-0.2792,-0.2733,-0.275,-0.2728,-0.2686,-0.2654,-0.2602,-0.266,-0.2585,-0.2582,-0.26,-0.2502,-0.2494,-0.2413,-0.2531,-0.2529,-0.2528,0,-0.3163,-0.3114,-0.3012,-0.2961,-0.2937,-0.2888,-0.2831,-0.2782,-0.2733,-0.2717,-0.2676,-0.2667,-0.2601,-0.2632,-0.2539,-0.2579,-0.2547,-0.2527,-0.2523,-0.2516,-0.2551,-0.2492,-0.2386,-0.2374,-0.2509,-0.251,-0.2512,0,-0.3107,-0.3015,-0.2943,-0.2917,-0.2855,-0.2821,-0.2793,-0.2746,-0.271,-0.2659,-0.2635,-0.2576,-0.2544,-0.2497,-0.2473,-0.2497,-0.2382,-0.2411,-0.2367,-0.2368,-0.2343,-0.2345,-0.2231,-0.2322,-0.2322,-0.2322,-0.2322,0,-0.3014,-0.2952,-0.2917,-0.2873,-0.2803,-0.2782,-0.2713,-0.2686,-0.2644,-0.2594,-0.2586,-0.2538,-0.2508,-0.2456,-0.2436,-0.2363,-0.2348,-0.2333,-0.2328,-0.2334,-0.2336,-0.2313,-0.2318,-0.2319,-0.232,-0.232,-0.2321,0,-0.294,-0.2914,-0.2835,-0.2784,-0.2769,-0.272,-0.2675,-0.2631,-0.2608,-0.2543,-0.2527,-0.2488,-0.2426,-0.2397,-0.232,-0.2306,-0.2224,-0.2222,-0.2241,-0.2239,-0.2198,-0.2202,-0.2065,-0.2046,-0.2149,-0.2148,-0.2148,0,-0.2883,-0.2835,-0.278,-0.2746,-0.2718,-0.2664,-0.2628,-0.2606,-0.2568,-0.2509,-0.2472,-0.2411,-0.236,-0.2261,-0.2225,-0.2166,-0.2163,-0.212,-0.2154,-0.2162,-0.2163,-0.2167,-0.2162,-0.2113,-0.2112,-0.2112,-0.2111,0,-0.2784,-0.2774,-0.2723,-0.2668,-0.2626,-0.2581,-0.2537,-0.251,-0.248,-0.2438,-0.2376,-0.2337,-0.226,-0.2198,-0.2137,-0.2107,-0.2103,-0.21,-0.2087,-0.2092,-0.2106,-0.2099,-0.2224,-0.2103,-0.2104,-0.2105,-0.2105,-0.2105,-0.2716,-0.2675,-0.263,-0.2574,-0.2539,-0.2498,-0.2455,-0.2426,-0.2375,-0.2311,-0.23,-0.2234,-0.2186,-0.2104,-0.2072,-0.2019,-0.2029,-0.201,-0.2005,-0.2001,-0.1999,-0.2114,-0.2007,-0.2008,-0.2008,-0.2008,-0.2008,0,-0.2618,-0.2589,-0.2538,-0.2478,-0.2434,-0.2437,-0.2388,-0.2351,-0.2294,-0.225,-0.2201,-0.213,-0.2071,-0.2031,-0.1971,-0.1936,-0.1933,-0.1921,-0.1924,-0.1917,-0.1993,-0.2011,-0.1925,-0.1925,-0.1925,-0.1925,-0.1925,-0.1925,-0.2562,-0.2492,-0.2476,-0.2389,-0.236,-0.2297,-0.2269,-0.2231,-0.2196,-0.2118,-0.207,-0.2045,-0.2002,-0.1939,-0.1885,-0.1875,-0.1853,-0.1841,-0.1831,-0.1902,-0.1911,-0.192,-0.1936,-0.1836,-0.1836,-0.1759,-0.1758,-0.1758]},{"header":{"parameterUnit":"m.s-1","parameterCategory":1,"la1":30.2991,"la2":30.254,"lo1":-89.0895,"lo2":-89.0444,"dy":0.0017,"dx":0.0017,"nx":28,"ny":28,"refTime":"2024-07-11T09:00:00:Z","depth":0,"parameterNumber":3,"parameterNumberName":"V-component_of_WINDS"},"data":[0,0,0,0,0,0,0,0,0,0,0,0,0,0,0,0,0,0,0,0,0,0,0,0,0,0,0,0,0,0,0,0,0,0,0,0,0,0,0,0,0,0,0,0,0,0,0,0,0,0,0,0,0,0,0,0,0,0,1.0011,1.0011,0,0.9952,0.9951,0.9951,0.9906,0.9906,0.9906,0.9905,0.9844,0.9843,0.9842,0,0,0,0,0,0,0,0,0,0,0,0,0,1.0085,1.0084,1.0012,1.0011,1.001,0.9952,0.9951,0.9951,0.9906,0.9906,0.9905,0.9905,0.9845,0.9843,0.9842,0,0,0,0,0,0,0,0,0,0,0,0,0,1.0042,1.0083,1.0012,0.9981,0.9978,0.9952,0.9951,0.995,0.9907,0.9906,0.9905,0.9905,0.9845,0.9843,0.9842,0.9842,0,0,0.9836,0.9835,0,0,0,0,0,0,0,0,1.0044,1.0039,0.9986,0.9983,0.9979,0.9936,0.9955,0.9914,0.9907,0.9934,0.9905,0.9905,0.9875,0.9871,0.9861,0.9839,0.9836,0.9836,0.9835,0.9834,0.9833,0,0,0,0,0,0,0,1.0048,1.0042,0.9988,0.9986,0.9981,0.997,0.9963,0.9947,0.9909,0.9931,0.9928,0.9921,0.9873,0.9863,0.9859,0.9836,0.9836,0.9834,0.9833,0.9832,0.9807,0.9807,0,0,0,0,0,0,1.0055,1.0044,0.999,0.9986,1.0011,0.9969,0.9961,0.9951,0.9909,0.9902,0.9922,0.992,0.9867,0.9862,0.9857,0.9852,0.9834,0.9832,0.9831,0.9807,0.9807,0.9808,0,0,0,0,0,0,1.0057,1.0051,0.9992,1.0014,1.0006,0.9968,0.9956,0.995,0.9939,0.9902,0.9894,0.9919,0.9866,0.986,0.9845,0.9849,0.9831,0.9829,0.9806,0.9807,0.9807,0.9844,0,0,0,0,0,0,1.0059,1.0052,1.0052,1.0015,1.0005,0.9982,0.9957,0.9949,0.9936,0.9932,0.9897,0.989,0.9865,0.9848,0.9843,0.9847,0.9828,0.9805,0.9806,0.9807,0.9842,0.9846,0.9849,0,0,0,0,0,1.0062,1.0066,1.0052,1.0046,1.0005,0.9983,0.9977,0.9948,0.9937,0.9936,0.9911,0.9891,0.985,0.9847,0.9841,0.9844,0.9805,0.9806,0.9807,0.9841,0.9845,0.9849,0,0,0,0,0,0,1.0105,1.006,1.0045,1.0037,1.0014,0.9975,0.9974,0.9954,0.9934,0.9931,0.9896,0.9888,0.9877,0.9859,0.9857,0.984,0.9825,0.9825,0.9852,0.9856,0.986,0.9863,0.9826,0,0,0,0,0,1.0113,1.01,1.0061,1.0057,1.0046,1.0012,1.0001,0.9981,0.9956,0.9946,0.992,0.9896,0.9877,0.9866,0.9847,0.984,0.983,0.9838,0.9842,0.9845,0.9845,0.9836,0.9839,0.9811,0.9811,0.9811,0,0,1.0131,1.0104,1.0098,1.0065,1.0045,1.003,1.0004,0.9991,0.9979,0.9944,0.9928,0.9908,0.9879,0.9867,0.9861,0.9852,0.985,0.9846,0.9849,0.9847,0.9838,0.984,0.9843,0.9812,0.9812,0.9811,0,0,1.0154,1.0134,1.0127,1.0107,1.0076,1.0053,1.0052,1.0015,1.0001,0.9984,0.9956,0.9942,0.9912,0.9891,0.9876,0.989,0.9869,0.9885,0.9902,0.9894,0.9896,0.9898,0.9901,0.9902,0.9885,0.9885,0.9885,0,1.0179,1.0157,1.0126,1.0113,1.0098,1.0065,1.0057,1.0039,1.0004,0.9994,0.9985,0.9944,0.9922,0.9903,0.9906,0.9897,0.9892,0.9888,0.9899,0.99,0.9901,0.9903,0.9905,0.9887,0.9887,0.9886,0.9886,0,1.0188,1.0172,1.017,1.0136,1.0122,1.0112,1.0078,1.0067,1.0047,1.0025,1.0007,0.9979,0.9953,0.9947,0.9928,0.9925,0.992,0.9905,0.9889,0.9906,0.9907,0.9908,0.989,0.9889,0.9888,0.9888,0,0,1.0237,1.0185,1.0184,1.0167,1.013,1.0117,1.0105,1.0079,1.0068,1.0045,1.0032,1.0006,0.9991,0.9975,0.9953,0.9947,0.9956,0.9932,0.9931,0.9936,0.9948,0.9958,0.996,0.9943,0.9943,0.9943,0.995,0,1.0253,1.0228,1.0199,1.0184,1.0168,1.0136,1.0125,1.01,1.0078,1.0061,1.0037,1.0018,1.0001,0.999,0.9983,0.9957,0.9958,0.9956,0.9929,0.9928,0.9936,0.9961,0.9972,0.998,0.995,0.995,0.995,0,1.0268,1.0245,1.0229,1.0191,1.0183,1.0174,1.0146,1.0131,1.0101,1.0086,1.0066,1.0043,1.0026,1.0012,0.9988,0.9987,0.9974,0.996,0.9959,0.9954,0.994,0.9955,0.9982,0.9983,0.9951,0.9951,0.9951,0,1.0302,1.0268,1.0253,1.024,1.0196,1.019,1.0171,1.0141,1.0127,1.0102,1.0092,1.0067,1.0052,1.0032,1.0001,0.9995,0.9979,0.9964,0.9965,0.9965,0.9962,0.9963,0.9986,0.9957,0.9957,0.9957,0.9957,0,1.0322,1.0313,1.0267,1.0258,1.0246,1.0212,1.0201,1.0179,1.0153,1.0138,1.0108,1.0095,1.0056,1.0037,1.0013,0.9995,0.9989,0.9975,0.9969,0.9977,0.9979,0.9967,0.9965,0.9957,0.9957,0.9957,0.9957,0,1.0358,1.0328,1.0309,1.0269,1.0258,1.0251,1.0216,1.0205,1.0181,1.0162,1.0156,1.0118,1.0094,1.0062,1.0028,1.0012,0.9996,0.9987,1.0006,1.0002,1.0004,1.0004,1.002,1.002,0.9992,0.9993,0.9993,0,1.0372,1.0364,1.0322,1.031,1.0292,1.0274,1.0258,1.0224,1.0209,1.0174,1.0167,1.0141,1.0118,1.0081,1.005,1.0024,1.0012,1.002,1.0008,1.0016,1.001,1.001,1.0009,1.0022,1.0023,1.0023,1.0024,0,1.0399,1.0384,1.0363,1.0336,1.0318,1.0296,1.0272,1.0263,1.0224,1.0208,1.0184,1.0166,1.0131,1.0104,1.0074,1.0053,1.0031,1.0028,1.0026,1.0034,1.0044,1.0037,1.0012,1.0027,1.0027,1.0027,1.0026,1.0026,1.0422,1.0413,1.0382,1.0359,1.0337,1.0315,1.0302,1.0276,1.0255,1.0224,1.0205,1.0181,1.015,1.0106,1.0086,1.0065,1.0057,1.0055,1.0055,1.0054,1.0056,1.0049,1.006,1.006,1.006,1.006,1.0059,0,1.0446,1.0424,1.0404,1.0371,1.0352,1.0334,1.0306,1.0291,1.027,1.0243,1.0221,1.0191,1.0165,1.0132,1.0103,1.0093,1.0082,1.0086,1.0086,1.0081,1.0067,1.007,1.0095,1.0095,1.0095,1.0095,1.0095,1.0095,1.0456,1.0438,1.0419,1.039,1.0368,1.0344,1.0329,1.0308,1.0286,1.0254,1.0232,1.0211,1.018,1.0149,1.0124,1.0114,1.0104,1.0111,1.0099,1.0086,1.0083,1.0079,1.0082,1.011,1.011,1.0115,1.0115,1.0115]}]]